Погода в Каламаки

Греция     37°44′16″N   20°53′35″E
темп.,
°C
ветер,
м/с
пор.,
м/с
влажн.,
%
обл.,
%
осадки,
мм/ч
давл.,
гПа
погр.,
м
12 мая, ср
ср1200:00+19св11751 0.0 101316
03:00+19з11740 0.0 101314
06:00+18с11735 0.0 101262
09:00+19ю017316 0.0 101244
12:00+20з126946 0.0 1012172
15:00+21зюз3466100 0.0 1011173
18:00+21зюз45700 0.0 1011161
21:00+19з56750 0.0 1010244
13 мая, чт
чт1300:00+18зсз48780 0.0 1011392
03:00+18сз35765 0.0 1010229
06:00+18юз01755 0.0 1010209
09:00+18ю11745 0.0 1011272
12:00+19ссз23690 0.0 1012320
15:00+20зсз23623 0.0 1012347
18:00+20юз34610 0.0 1012531
21:00+19зсз33710 0.0 1012134
14 мая, пт
пт1400:00+18сз34720 0.0 1014292
03:00+18зюз12730 0.0 1013217
06:00+17юв11750 0.0 1014214
09:00+18ююв22751 0.0 1015235
12:00+19ю33710 0.0 1016287
15:00+20ююз44660 0.0 1016239
18:00+20юз55660 0.0 1016240
21:00+19юз33770 0.0 101591
15 мая, сб
сб1500:00+19юз11785 0.0 101626
03:00+19ююв23775 0.0 1015123
06:00+18юв33756 0.0 1014176
09:00+18ююв4575100 0.0 1014249
12:00+19ю4573100 0.0 1014211
15:00+20ююз5772100 0.0 1013277
18:00+20ююз797899 0.0 1011397
21:00+19зсз710770 1.1 1010731
16 мая, вс
вс1600:00+18зсз57760 0.0 1011401
03:00+18сз911725 0.1 1010807
06:00+18сз910760 0.0 1010950
09:00+18сз777013 0.0 1011992
12:00+19ссз5667100 0.0 10111055
15:00+19сз996958 0.0 10111068
18:00+19сз8972100 0.0 1010641
21:00+19сз89752 0.0 1010528